N841N KAPC-KCYS

Flight info

Callsign N841N
Flight time 1h 57m
Altitude 41000
Route NAPAA4 SGD CROIT TILTS ASTNN PICHO SPANZ ALPOE
Aircraft CL60/M-SBDE1E2E3FGHIJ1J4J5J7M3RWXYZ/LB1V1D1

Departure

Time 2026-04-11 16:48
Airport Napa County Airport (KAPC)

Arrival

Time 2026-04-11 18:45
Airport Cheyenne Regional Jerry Olson Field (KCYS)
Time Latitude Longitude Altitude Speed Heading
2026-04-11 16:20 38.21584 -122.27331 32 ft 0 kts 244°
2026-04-11 16:43 38.21580 -122.27338 33 ft 3 kts 227°
2026-04-11 16:43 38.21547 -122.27350 33 ft 5 kts 146°
2026-04-11 16:43 38.21510 -122.27319 33 ft 8 kts 151°
2026-04-11 16:44 38.21466 -122.27327 33 ft 7 kts 246°
2026-04-11 16:44 38.21447 -122.27379 33 ft 4 kts 252°
2026-04-11 16:44 38.21472 -122.27407 33 ft 7 kts 332°
2026-04-11 16:44 38.21537 -122.27451 32 ft 13 kts 333°
2026-04-11 16:45 38.21645 -122.27521 30 ft 19 kts 333°
2026-04-11 16:45 38.21748 -122.27588 30 ft 17 kts 333°
2026-04-11 16:45 38.21852 -122.27657 29 ft 15 kts 333°
2026-04-11 16:45 38.21943 -122.27714 29 ft 11 kts 346°
2026-04-11 16:46 38.22030 -122.27682 29 ft 14 kts 21°
2026-04-11 16:46 38.22134 -122.27632 29 ft 14 kts 20°
2026-04-11 16:46 38.22218 -122.27638 29 ft 11 kts 333°
2026-04-11 16:46 38.22282 -122.27693 29 ft 11 kts 298°
2026-04-11 16:47 38.22306 -122.27776 29 ft 7 kts 290°
2026-04-11 16:47 38.22298 -122.27811 29 ft 0 kts 197°
2026-04-11 16:48 38.22114 -122.27896 28 ft 82 kts 201°
2026-04-11 16:48 38.21281 -122.28298 128 ft 157 kts 199°
2026-04-11 16:48 38.20272 -122.29022 837 ft 184 kts 225°
2026-04-11 16:48 38.19771 -122.30659 1627 ft 215 kts 253°
2026-04-11 16:49 38.19392 -122.32476 2328 ft 208 kts 240°
2026-04-11 16:49 38.18447 -122.33817 2944 ft 212 kts 208°
2026-04-11 16:49 38.16973 -122.34365 3717 ft 236 kts 179°
2026-04-11 16:49 38.15403 -122.33690 4628 ft 252 kts 145°
2026-04-11 16:50 38.14162 -122.32018 5636 ft 260 kts 134°
2026-04-11 16:50 38.13010 -122.30298 6638 ft 261 kts 135°
2026-04-11 16:50 38.11881 -122.28631 7606 ft 264 kts 135°
2026-04-11 16:50 38.10667 -122.26846 8634 ft 269 kts 135°
2026-04-11 16:51 38.09443 -122.25047 9671 ft 274 kts 135°
2026-04-11 16:51 38.08196 -122.23222 10719 ft 279 kts 135°
2026-04-11 16:51 38.06969 -122.21222 11564 ft 302 kts 125°
2026-04-11 16:51 38.06210 -122.18565 12233 ft 335 kts 101°
2026-04-11 16:52 38.06414 -122.15524 12887 ft 364 kts 79°
2026-04-11 16:52 38.07152 -122.12350 13496 ft 384 kts 76°
2026-04-11 16:52 38.07919 -122.09088 14179 ft 397 kts 76°
2026-04-11 16:52 38.08695 -122.05770 15132 ft 399 kts 77°
2026-04-11 16:53 38.09483 -122.02381 16173 ft 402 kts 76°
2026-04-11 16:53 38.10273 -121.98975 17141 ft 406 kts 76°
2026-04-11 16:53 38.11069 -121.95527 18083 ft 409 kts 76°
2026-04-11 16:53 38.11877 -121.92022 18998 ft 411 kts 76°
2026-04-11 16:54 38.12679 -121.88528 19901 ft 413 kts 76°
2026-04-11 16:54 38.13483 -121.85016 20527 ft 422 kts 76°
2026-04-11 16:54 38.14319 -121.81350 21024 ft 433 kts 76°
2026-04-11 16:54 38.15130 -121.77788 21522 ft 442 kts 76°
2026-04-11 16:55 38.16000 -121.73954 22082 ft 449 kts 76°
2026-04-11 16:55 38.16864 -121.70142 22642 ft 454 kts 76°
2026-04-11 16:55 38.17747 -121.66235 23218 ft 459 kts 76°
2026-04-11 16:55 38.18634 -121.62302 23815 ft 463 kts 76°
2026-04-11 16:56 38.20412 -121.54392 25048 ft 468 kts 76°
2026-04-11 16:56 38.21304 -121.50414 25662 ft 469 kts 76°
2026-04-11 16:56 38.22197 -121.46420 26268 ft 470 kts 76°
2026-04-11 16:57 38.23097 -121.42386 26883 ft 471 kts 76°
2026-04-11 16:57 38.23994 -121.38361 27475 ft 472 kts 76°
2026-04-11 16:57 38.24894 -121.34312 28066 ft 472 kts 76°
2026-04-11 16:57 38.25787 -121.30289 28633 ft 472 kts 76°
2026-04-11 16:58 38.26666 -121.26321 29188 ft 472 kts 76°
2026-04-11 16:58 38.27560 -121.22272 29735 ft 472 kts 76°
2026-04-11 16:58 38.28446 -121.18258 30265 ft 472 kts 76°
2026-04-11 16:58 38.29338 -121.14208 30779 ft 471 kts 76°
2026-04-11 16:59 38.30220 -121.10199 31267 ft 471 kts 75°
2026-04-11 16:59 38.31103 -121.06174 31757 ft 471 kts 75°
2026-04-11 16:59 38.31980 -121.02166 32235 ft 471 kts 75°
2026-04-11 16:59 38.32865 -120.98117 32709 ft 470 kts 75°
2026-04-11 17:00 38.33731 -120.94146 33157 ft 470 kts 74°
2026-04-11 17:00 38.34611 -120.90105 33598 ft 469 kts 75°
2026-04-11 17:00 38.35473 -120.86139 34023 ft 469 kts 74°
2026-04-11 17:00 38.36338 -120.82155 34419 ft 468 kts 74°
2026-04-11 17:01 38.37212 -120.78120 34768 ft 468 kts 74°
2026-04-11 17:01 38.38080 -120.74101 35105 ft 467 kts 73°
2026-04-11 17:01 38.38937 -120.70126 35430 ft 466 kts 74°
2026-04-11 17:01 38.39790 -120.66166 35748 ft 466 kts 74°
2026-04-11 17:02 38.40650 -120.62166 36058 ft 465 kts 74°
2026-04-11 17:02 38.41496 -120.58220 36392 ft 464 kts 74°
2026-04-11 17:02 38.42348 -120.54243 36782 ft 462 kts 74°
2026-04-11 17:02 38.43192 -120.50292 37168 ft 461 kts 74°
2026-04-11 17:03 38.44031 -120.46362 37529 ft 460 kts 74°
2026-04-11 17:03 38.44868 -120.42427 37851 ft 459 kts 74°
2026-04-11 17:03 38.45702 -120.38508 38144 ft 458 kts 74°
2026-04-11 17:03 38.46543 -120.34545 38422 ft 457 kts 75°
2026-04-11 17:04 38.47365 -120.30661 38674 ft 457 kts 75°
2026-04-11 17:04 38.48197 -120.26727 38918 ft 456 kts 75°
2026-04-11 17:04 38.49020 -120.22828 39148 ft 455 kts 75°
2026-04-11 17:04 38.49842 -120.18926 39365 ft 454 kts 75°
2026-04-11 17:05 38.50653 -120.15067 39564 ft 454 kts 75°
2026-04-11 17:05 38.51470 -120.11176 39726 ft 453 kts 75°
2026-04-11 17:05 38.52293 -120.07246 39889 ft 453 kts 75°
2026-04-11 17:05 38.53094 -120.03416 40032 ft 452 kts 75°
2026-04-11 17:06 38.53905 -119.99530 40173 ft 452 kts 75°
2026-04-11 17:06 38.54714 -119.95651 40305 ft 451 kts 75°
2026-04-11 17:06 38.55518 -119.91785 40430 ft 451 kts 75°
2026-04-11 17:06 38.56322 -119.87913 40548 ft 450 kts 76°
2026-04-11 17:07 38.57125 -119.84038 40669 ft 450 kts 76°
2026-04-11 17:07 38.57926 -119.80163 40778 ft 449 kts 75°
2026-04-11 17:07 38.58721 -119.76311 40880 ft 449 kts 76°
2026-04-11 17:07 38.59516 -119.72453 40931 ft 450 kts 76°
2026-04-11 17:08 38.61119 -119.64650 40945 ft 456 kts 76°
2026-04-11 17:08 38.62730 -119.56783 40946 ft 460 kts 76°
2026-04-11 17:09 38.64366 -119.48870 40958 ft 465 kts 75°
2026-04-11 17:09 38.66052 -119.40857 40945 ft 470 kts 75°
2026-04-11 17:13 38.77999 -118.83144 40932 ft 486 kts 76°
2026-04-11 17:13 38.79703 -118.74781 40930 ft 488 kts 76°
2026-04-11 17:14 38.81404 -118.66402 40942 ft 489 kts 76°
2026-04-11 17:14 38.83106 -118.57978 40937 ft 489 kts 76°
2026-04-11 17:16 38.87364 -118.36763 40932 ft 491 kts 76°
2026-04-11 17:16 38.89043 -118.28339 40923 ft 491 kts 77°
2026-04-11 17:17 38.90739 -118.19788 40922 ft 490 kts 77°
2026-04-11 17:17 38.92403 -118.11369 40917 ft 490 kts 77°
2026-04-11 17:18 38.94069 -118.02900 40926 ft 490 kts 77°
2026-04-11 17:18 38.95732 -117.94415 40934 ft 489 kts 77°
2026-04-11 17:19 38.97389 -117.85925 40929 ft 489 kts 77°
2026-04-11 17:19 38.99043 -117.77414 40930 ft 489 kts 77°
2026-04-11 17:20 39.00671 -117.68993 40939 ft 489 kts 77°
2026-04-11 17:20 39.02306 -117.60513 40947 ft 489 kts 77°
2026-04-11 17:21 39.03928 -117.52059 40951 ft 489 kts 77°
2026-04-11 17:21 39.05553 -117.43553 40949 ft 489 kts 77°
2026-04-11 17:22 39.07168 -117.35062 40944 ft 489 kts 77°
2026-04-11 17:22 39.08775 -117.26576 40950 ft 489 kts 78°
2026-04-11 17:23 39.10387 -117.18031 40952 ft 488 kts 78°
2026-04-11 17:23 39.11980 -117.09544 40955 ft 488 kts 78°
2026-04-11 17:24 39.13554 -117.01125 40963 ft 487 kts 78°
2026-04-11 17:24 39.15131 -116.92651 40953 ft 486 kts 78°
2026-04-11 17:25 39.16706 -116.84157 40947 ft 486 kts 78°
2026-04-11 17:25 39.18267 -116.75697 40950 ft 486 kts 78°
2026-04-11 17:26 39.19816 -116.67266 40957 ft 486 kts 78°
2026-04-11 17:26 39.21369 -116.58772 40948 ft 486 kts 78°
2026-04-11 17:27 39.22915 -116.50283 40940 ft 486 kts 78°
2026-04-11 17:27 39.24442 -116.41861 40949 ft 486 kts 78°
2026-04-11 17:28 39.26060 -116.33370 40962 ft 487 kts 77°
2026-04-11 17:28 39.27816 -116.24899 40954 ft 487 kts 77°
2026-04-11 17:29 39.29548 -116.16492 40961 ft 487 kts 77°
2026-04-11 17:29 39.31280 -116.08042 40979 ft 487 kts 77°
2026-04-11 17:30 39.32997 -115.99624 40954 ft 486 kts 77°
2026-04-11 17:30 39.34711 -115.91177 40960 ft 487 kts 77°
2026-04-11 17:31 39.36414 -115.82752 40945 ft 487 kts 77°
2026-04-11 17:31 39.38112 -115.74310 40947 ft 487 kts 77°
2026-04-11 17:32 39.39808 -115.65839 40947 ft 487 kts 77°
2026-04-11 17:32 39.41495 -115.57381 40949 ft 487 kts 77°
2026-04-11 17:33 39.43173 -115.48931 40955 ft 487 kts 77°
2026-04-11 17:33 39.44852 -115.40434 40962 ft 487 kts 77°
2026-04-11 17:34 39.46526 -115.31931 40951 ft 487 kts 78°
2026-04-11 17:34 39.48187 -115.23454 40953 ft 487 kts 78°
2026-04-11 17:35 39.49839 -115.14992 40952 ft 486 kts 78°
2026-04-11 17:35 39.51392 -115.07002 40954 ft 486 kts 78°
2026-04-11 17:36 39.53033 -114.98526 40952 ft 486 kts 78°
2026-04-11 17:36 39.54680 -114.89984 40959 ft 486 kts 78°
2026-04-11 17:37 39.56322 -114.81427 40955 ft 486 kts 78°
2026-04-11 17:37 39.57947 -114.72926 40957 ft 486 kts 78°
2026-04-11 17:38 39.59570 -114.64395 40956 ft 486 kts 78°
2026-04-11 17:38 39.61187 -114.55862 40958 ft 486 kts 78°
2026-04-11 17:39 39.62796 -114.47335 40958 ft 486 kts 78°
2026-04-11 17:39 39.64375 -114.38924 40948 ft 486 kts 78°
2026-04-11 17:40 39.65975 -114.30370 40947 ft 486 kts 78°
2026-04-11 17:40 39.67532 -114.22011 40954 ft 486 kts 78°
2026-04-11 17:41 39.69108 -114.13514 40957 ft 486 kts 79°
2026-04-11 17:41 39.70695 -114.04916 40938 ft 486 kts 78°
2026-04-11 17:42 39.72268 -113.96358 40948 ft 486 kts 78°
2026-04-11 17:42 39.73837 -113.87779 40947 ft 487 kts 78°
2026-04-11 17:43 39.76191 -113.74844 40948 ft 487 kts 78°
2026-04-11 17:43 39.77739 -113.66288 40949 ft 487 kts 78°
2026-04-11 17:44 39.79283 -113.57717 40942 ft 487 kts 78°
2026-04-11 17:44 39.80823 -113.49129 40951 ft 487 kts 79°
2026-04-11 17:45 39.82352 -113.40562 40944 ft 488 kts 79°
2026-04-11 17:45 39.83877 -113.31986 40938 ft 488 kts 79°
2026-04-11 17:46 39.85383 -113.23475 40937 ft 488 kts 79°
2026-04-11 17:46 39.86897 -113.14877 40940 ft 487 kts 79°
2026-04-11 17:47 39.88364 -113.06502 40936 ft 488 kts 79°
2026-04-11 17:47 39.89891 -112.97752 40925 ft 488 kts 79°
2026-04-11 17:48 39.92132 -112.84834 40932 ft 487 kts 79°
2026-04-11 17:49 39.94360 -112.71899 40930 ft 487 kts 79°
2026-04-11 17:50 39.96582 -112.58930 40935 ft 488 kts 79°
2026-04-11 17:50 39.98444 -112.50478 40939 ft 489 kts 75°
2026-04-11 17:51 40.00399 -112.41973 40939 ft 489 kts 75°
2026-04-11 17:51 40.03307 -112.29237 40949 ft 489 kts 75°
2026-04-11 17:52 40.05174 -112.21018 40958 ft 489 kts 76°
2026-04-11 17:52 40.07113 -112.12439 40960 ft 488 kts 75°
2026-04-11 17:53 40.09022 -112.03956 40958 ft 489 kts 75°
2026-04-11 17:53 40.10941 -111.95404 40955 ft 489 kts 75°
2026-04-11 17:54 40.12836 -111.86918 40931 ft 489 kts 75°
2026-04-11 17:54 40.14728 -111.78408 40938 ft 489 kts 75°
2026-04-11 17:55 40.16619 -111.69874 40945 ft 489 kts 76°
2026-04-11 17:55 40.18430 -111.61672 40956 ft 489 kts 75°
2026-04-11 17:56 40.20315 -111.53092 40978 ft 489 kts 76°
2026-04-11 17:56 40.22184 -111.44553 40992 ft 489 kts 76°
2026-04-11 17:57 40.24053 -111.35983 41037 ft 488 kts 76°
2026-04-11 17:57 40.25852 -111.27696 41041 ft 488 kts 76°
2026-04-11 17:58 40.27688 -111.19218 41060 ft 488 kts 77°
2026-04-11 17:58 40.29521 -111.10717 41059 ft 487 kts 76°
2026-04-11 17:59 40.31364 -111.02131 41057 ft 488 kts 77°
2026-04-11 17:59 40.33187 -110.93601 41056 ft 489 kts 77°
2026-04-11 18:00 40.35024 -110.84982 41064 ft 490 kts 77°
2026-04-11 18:00 40.36850 -110.76373 41057 ft 490 kts 77°
2026-04-11 18:01 40.38678 -110.67725 41034 ft 491 kts 77°
2026-04-11 18:01 40.40490 -110.59116 41038 ft 491 kts 77°
2026-04-11 18:02 40.42302 -110.50478 41052 ft 491 kts 77°
2026-04-11 18:02 40.44108 -110.41827 41023 ft 486 kts 77°
2026-04-11 18:03 40.45904 -110.33194 41069 ft 487 kts 78°
2026-04-11 18:03 40.47693 -110.24554 41067 ft 489 kts 78°
2026-04-11 18:04 40.49472 -110.15926 41067 ft 491 kts 78°
2026-04-11 18:04 40.51254 -110.07243 41063 ft 492 kts 78°
2026-04-11 18:05 40.53035 -109.98535 41058 ft 493 kts 78°
2026-04-11 18:05 40.54810 -109.89822 41077 ft 494 kts 78°
2026-04-11 18:06 40.56576 -109.81110 41066 ft 494 kts 78°
2026-04-11 18:06 40.58344 -109.72359 41064 ft 494 kts 78°
2026-04-11 18:07 40.60127 -109.63490 41046 ft 494 kts 78°
2026-04-11 18:07 40.61877 -109.54751 41062 ft 494 kts 78°
2026-04-11 18:08 40.63628 -109.45969 41053 ft 494 kts 78°
2026-04-11 18:08 40.65366 -109.37213 41067 ft 494 kts 78°
2026-04-11 18:09 40.67084 -109.28516 41059 ft 494 kts 79°
2026-04-11 18:09 40.68604 -109.19745 41071 ft 489 kts 85°
2026-04-11 18:10 40.69554 -109.10820 41075 ft 488 kts 86°
2026-04-11 18:10 40.70490 -109.01981 41079 ft 488 kts 86°
2026-04-11 18:11 40.71426 -108.93087 41063 ft 488 kts 86°
2026-04-11 18:11 40.72360 -108.84158 41068 ft 489 kts 86°
2026-04-11 18:12 40.73283 -108.75258 41081 ft 490 kts 86°
2026-04-11 18:12 40.74198 -108.66383 41072 ft 491 kts 86°
2026-04-11 18:13 40.75117 -108.57404 41079 ft 492 kts 86°
2026-04-11 18:13 40.76027 -108.48429 41077 ft 493 kts 86°
2026-04-11 18:14 40.76932 -108.39453 41093 ft 493 kts 87°
2026-04-11 18:14 40.77834 -108.30421 41052 ft 494 kts 87°
2026-04-11 18:15 40.78721 -108.21489 41082 ft 493 kts 87°
2026-04-11 18:15 40.79603 -108.12508 41081 ft 494 kts 88°
2026-04-11 18:16 40.80485 -108.03466 41061 ft 495 kts 88°
2026-04-11 18:16 40.81360 -107.94419 41079 ft 496 kts 88°
2026-04-11 18:17 40.82232 -107.85331 41073 ft 497 kts 87°
2026-04-11 18:17 40.83103 -107.76174 41084 ft 497 kts 88°
2026-04-11 18:18 40.83955 -107.67138 41095 ft 497 kts 87°
2026-04-11 18:18 40.84809 -107.58009 41110 ft 496 kts 88°
2026-04-11 18:19 40.85646 -107.48975 41122 ft 496 kts 88°
2026-04-11 18:19 40.86480 -107.39905 41144 ft 496 kts 88°
2026-04-11 18:20 40.87297 -107.30922 41146 ft 496 kts 88°
2026-04-11 18:20 40.88105 -107.21964 41178 ft 496 kts 88°
2026-04-11 18:21 40.88909 -107.12975 41196 ft 496 kts 88°
2026-04-11 18:21 40.89709 -107.03948 41175 ft 496 kts 88°
2026-04-11 18:22 40.90506 -106.94878 41186 ft 496 kts 88°
2026-04-11 18:22 40.91293 -106.85832 41175 ft 496 kts 88°
2026-04-11 18:23 40.92075 -106.76769 41166 ft 496 kts 88°
2026-04-11 18:23 40.92851 -106.67688 41167 ft 496 kts 88°
2026-04-11 18:24 40.93235 -106.63152 41012 ft 500 kts 88°
2026-04-11 18:24 40.93620 -106.58556 40415 ft 506 kts 88°
2026-04-11 18:24 40.94007 -106.53953 39801 ft 504 kts 89°
2026-04-11 18:24 40.94392 -106.49358 39097 ft 501 kts 89°
2026-04-11 18:25 40.94647 -106.46303 38689 ft 498 kts 88°
2026-04-11 18:25 40.95142 -106.40334 37795 ft 494 kts 89°
2026-04-11 18:25 40.95511 -106.35862 37186 ft 487 kts 89°
2026-04-11 18:26 40.96029 -106.27175 35953 ft 476 kts 94°
2026-04-11 18:26 40.96144 -106.22827 35240 ft 477 kts 94°
2026-04-11 18:26 40.96265 -106.18413 34580 ft 476 kts 95°
2026-04-11 18:26 40.96338 -106.15798 34164 ft 475 kts 95°
2026-04-11 18:27 40.96498 -106.10203 33407 ft 468 kts 95°
2026-04-11 18:27 40.96616 -106.05857 32778 ft 463 kts 95°
2026-04-11 18:27 40.96726 -106.01701 32170 ft 459 kts 95°
2026-04-11 18:27 40.96835 -105.97571 31588 ft 453 kts 94°
2026-04-11 18:28 40.96943 -105.93439 30992 ft 449 kts 94°
2026-04-11 18:28 40.97048 -105.89362 30396 ft 444 kts 94°
2026-04-11 18:28 40.97151 -105.85297 29796 ft 439 kts 94°
2026-04-11 18:28 40.97253 -105.81237 29215 ft 434 kts 94°
2026-04-11 18:29 40.97351 -105.77277 28638 ft 430 kts 94°
2026-04-11 18:29 40.97446 -105.73367 28083 ft 425 kts 94°
2026-04-11 18:29 40.97540 -105.69441 27501 ft 421 kts 94°
2026-04-11 18:29 40.97631 -105.65604 26954 ft 417 kts 94°
2026-04-11 18:30 40.97691 -105.63058 26588 ft 414 kts 94°
2026-04-11 18:30 40.97808 -105.58003 25843 ft 409 kts 94°
2026-04-11 18:30 40.97894 -105.54226 25308 ft 405 kts 94°
2026-04-11 18:30 40.97977 -105.50546 24773 ft 402 kts 94°
2026-04-11 18:31 40.98059 -105.46825 24230 ft 398 kts 94°
2026-04-11 18:31 40.98138 -105.43239 23707 ft 394 kts 93°
2026-04-11 18:31 40.98216 -105.39586 23173 ft 390 kts 93°
2026-04-11 18:31 40.98293 -105.36018 22655 ft 386 kts 93°
2026-04-11 18:32 40.98367 -105.32479 22137 ft 382 kts 93°
2026-04-11 18:32 40.98439 -105.28991 21627 ft 378 kts 93°
2026-04-11 18:32 40.98503 -105.25842 21179 ft 373 kts 93°
2026-04-11 18:32 40.98573 -105.22400 20674 ft 369 kts 92°
2026-04-11 18:33 40.98638 -105.19057 20176 ft 366 kts 92°
2026-04-11 18:33 40.98704 -105.15695 19687 ft 361 kts 92°
2026-04-11 18:33 40.98767 -105.12391 19205 ft 357 kts 92°
2026-04-11 18:33 40.98830 -105.09079 18716 ft 354 kts 91°
2026-04-11 18:34 40.98890 -105.05843 18240 ft 351 kts 91°
2026-04-11 18:34 40.98948 -105.02641 17762 ft 348 kts 91°
2026-04-11 18:34 40.99007 -104.99392 17262 ft 346 kts 91°
2026-04-11 18:34 40.99063 -104.96220 16838 ft 344 kts 91°
2026-04-11 18:35 40.99119 -104.93057 16374 ft 342 kts 90°
2026-04-11 18:35 40.99173 -104.89901 15906 ft 338 kts 91°
2026-04-11 18:35 40.99225 -104.86800 15460 ft 335 kts 91°
2026-04-11 18:35 40.99276 -104.83700 15005 ft 332 kts 91°
2026-04-11 18:36 40.99326 -104.80680 14567 ft 329 kts 91°
2026-04-11 18:36 40.99376 -104.77615 14142 ft 325 kts 91°
2026-04-11 18:36 40.99423 -104.74647 13700 ft 322 kts 91°
2026-04-11 18:36 40.99470 -104.71675 13299 ft 318 kts 91°
2026-04-11 18:37 40.99515 -104.68743 12868 ft 316 kts 91°
2026-04-11 18:37 40.99558 -104.65847 12447 ft 313 kts 91°
2026-04-11 18:37 40.99602 -104.62962 12028 ft 311 kts 91°
2026-04-11 18:37 40.99645 -104.60099 11632 ft 307 kts 91°
2026-04-11 18:38 40.99894 -104.57297 11206 ft 307 kts 76°
2026-04-11 18:38 41.00797 -104.54730 10674 ft 311 kts 55°
2026-04-11 18:38 41.02306 -104.52731 10186 ft 310 kts 34°
2026-04-11 18:38 41.04281 -104.51515 9493 ft 311 kts 11°
2026-04-11 18:39 41.06393 -104.51194 9126 ft 295 kts
2026-04-11 18:39 41.08400 -104.50983 9054 ft 264 kts
2026-04-11 18:39 41.10149 -104.50851 8778 ft 246 kts 354°
2026-04-11 18:39 41.11796 -104.51305 8281 ft 238 kts 333°
2026-04-11 18:40 41.12633 -104.52019 8018 ft 228 kts 313°
2026-04-11 18:40 41.13513 -104.53718 7850 ft 222 kts 287°
2026-04-11 18:40 41.13863 -104.56220 7841 ft 199 kts 271°
2026-04-11 18:40 41.13982 -104.57947 7826 ft 174 kts 271°
2026-04-11 18:41 41.14093 -104.59511 7798 ft 166 kts 271°
2026-04-11 18:41 41.14198 -104.60962 7811 ft 149 kts 270°
2026-04-11 18:41 41.14292 -104.62305 7817 ft 144 kts 271°
2026-04-11 18:41 41.14385 -104.63616 7805 ft 140 kts 270°
2026-04-11 18:42 41.14470 -104.64887 7803 ft 138 kts 269°
2026-04-11 18:42 41.14570 -104.66116 7808 ft 137 kts 271°
2026-04-11 18:42 41.14682 -104.67396 7713 ft 138 kts 270°
2026-04-11 18:42 41.14790 -104.68658 7635 ft 138 kts 270°
2026-04-11 18:43 41.14877 -104.69941 7525 ft 139 kts 270°
2026-04-11 18:43 41.14966 -104.71188 7331 ft 135 kts 269°
2026-04-11 18:43 41.15047 -104.72417 7158 ft 136 kts 269°
2026-04-11 18:43 41.15128 -104.73700 6988 ft 141 kts 269°
2026-04-11 18:44 41.15207 -104.74997 6742 ft 139 kts 270°
2026-04-11 18:44 41.15292 -104.76243 6534 ft 132 kts 269°
2026-04-11 18:44 41.15368 -104.77503 6377 ft 142 kts 269°
2026-04-11 18:44 41.15448 -104.78779 6146 ft 135 kts 269°
2026-04-11 18:45 41.15519 -104.79896 6118 ft 106 kts 270°
2026-04-11 18:45 41.15578 -104.80737 6133 ft 76 kts 274°
2026-04-11 18:45 41.15613 -104.81284 6141 ft 41 kts 279°
2026-04-11 18:45 41.15633 -104.81577 6145 ft 15 kts 258°
2026-04-11 18:46 41.15567 -104.81613 6145 ft 10 kts 178°
2026-04-11 18:46 41.15523 -104.81612 6145 ft 1 kts 182°
2026-04-11 18:46 41.15494 -104.81619 6145 ft 6 kts 206°
2026-04-11 18:46 41.15448 -104.81673 6145 ft 10 kts 224°
2026-04-11 18:47 41.15393 -104.81747 6145 ft 10 kts 225°
2026-04-11 18:47 41.15326 -104.81758 6145 ft 11 kts 148°
2026-04-11 18:47 41.15241 -104.81740 6144 ft 13 kts 178°
2026-04-11 18:47 41.15150 -104.81735 6143 ft 12 kts 178°
2026-04-11 18:48 41.15098 -104.81736 6143 ft 4 kts 213°
2026-04-11 18:48 41.15094 -104.81750 6143 ft 1 kts 269°
2026-04-11 18:48 41.15094 -104.81751 6143 ft 0 kts 269°